Flag for Germany Weather past 2 weeks in Friesoythe, Lower Saxony, Germany

Now
73 °F

Mild.


Feels Like: 77 °F
Forecast: 57 / 63 °F
Wind: 13 mph from West

Location: Meppen-Mil

Current Time: Jul 7, 2015 at 8:59:21 PM

Latest Report: Jul 7, 2015 at 8:20 PM


Visibility: 5 mi

Pressure: 29.68 "Hg

Humidity: 57%

Dew point: 57 °F

Location of FriesoytheLocation

Historic Weather in Friesoythe — Graph

°F

Friesoythe temperature yesterday

Maximum temperature yesterday: 73 °F (at 2:20 PM)
Minimum temperature yesterday: 57 °F (at 11:20 PM)
Average temperature yesterday: 66 °F

Past Weeks' High & Low Weather Summary

 TemperatureHumidityPressure
High97 °F (Jul 2, 5:20 PM)100% (Jul 7, 6:20 AM)30.27 "Hg (Jul 7, 6:20 AM)
Low46 °F (Jun 23, 2:20 AM)28% (Jul 2, 3:20 PM)29.65 "Hg (Jun 22, 8:20 PM)
Average67 °F67%30.07 "Hg
* Reported Jun 22 7:20 PM — Jul 7 7:20 PM, Friesoythe, Weather by CustomWeather, © 2015

Note: Actual official high and low records may vary slightly from our data, if they occured in-between our weather recording intervals... More about our weather records

Advertising

Friesoythe weather history for previous 24 hours

 ConditionsComfort  
Time TempWeatherWind HumidityBarometerVisibility
7:20 PM
Tue, Jul 7
77 °FWarm.12 mph44%29.68 "Hg6 mi
6:20 PM79 °FWarm.12 mph45%29.68 "Hg6 mi
5:20 PM82 °FPleasantly warm.7 mph37%29.68 "Hg5 mi
4:20 PM81 °FBroken clouds.6 mph42%29.71 "HgN/A
3:20 PM77 °FLight rain. Partly sunny.5 mph51%29.74 "HgN/A
2:20 PM81 °FLight rain. Partly sunny.3 mph37%29.77 "HgN/A
1:20 PM79 °FBroken clouds.8 mph34%29.80 "HgN/A
12:20 PM81 °FBroken clouds.6 mph34%29.80 "HgN/A
11:20 AM77 °FBroken clouds.8 mph39%29.83 "HgN/A
10:20 AM77 °FScattered clouds.6 mph44%29.86 "HgN/A
9:20 AM73 °FPassing clouds.5 mph50%29.89 "HgN/A
8:20 AM68 °FPassing clouds.3 mph64%29.92 "HgN/A
7:20 AM63 °FPassing clouds.2 mph73%29.92 "HgN/A
6:20 AM54 °FFog.2 mph100%29.95 "HgN/A
5:20 AM52 °FCool.1 mph94%29.98 "Hg0 mi
4:20 AM52 °FCool.1 mph94%29.98 "Hg0 mi
3:20 AM52 °FCool.1 mph94%30.01 "Hg4 mi
2:20 AM54 °FCool.1 mph94%30.01 "Hg4 mi
1:20 AM55 °FCool.No wind88%30.04 "Hg5 mi
12:20 AM55 °FCool.1 mph88%30.04 "Hg5 mi
11:20 PM
Mon, Jul 6
57 °FCool.1 mph82%30.07 "Hg6 mi
10:20 PM61 °FCool.No wind77%30.07 "Hg6 mi
9:20 PM66 °FMild.2 mph60%30.07 "Hg6 mi
8:20 PM70 °FMild.6 mph53%30.09 "Hg5 mi
Weather by CustomWeather, © 2015

See weather overviewHow to use our weather pages